KB3GVC-13 Weather Reports


time (UTC)temp
C
wind
direction
speed
KPH
gust
KPH
rain 1hr
cm
rain 24hr
cm
rain mn
cm
humidity
%
barometer
mb
20260504110537 9 278 0.0 1.6 0.00 0.00 0.00 84 1016.4
20260504100454 7 197 0.0 1.6 0.00 0.00 0.00 87 1016.3
20260504081847 5 222 0.0 1.6 0.00 0.00 0.00 89 1016.5
20260504081343 5 222 0.0 0.0 0.00 0.00 0.00 88 1016.7
20260504080839 5 229 0.0 0.0 0.00 0.00 0.00 87 1016.6
20260504080336 5 229 0.0 0.0 0.00 0.00 0.00 86 1016.6
20260504070303 6 229 0.0 0.0 0.00 0.00 0.00 83 1016.6
20260504060224 5 292 0.0 0.0 0.00 0.00 0.00 83 1016.2
20260504050652 6 292 0.0 0.0 0.00 0.00 0.00 79 1016.7
20260504050149 6 292 0.0 0.0 0.00 0.00 0.00 79 1016.6
20260504045647 6 292 0.0 0.0 0.00 0.00 0.00 78 1016.5
20260504045146 6 292 0.0 0.0 0.00 0.00 0.00 78 1016.6
20260504044644 6 292 0.0 0.0 0.00 0.00 0.00 78 1016.6
20260504044140 5 292 0.0 1.6 0.00 0.00 0.00 80 1016.5
20260504043638 5 292 0.0 0.0 0.00 0.00 0.00 83 1016.4
20260504043135 5 292 0.0 0.0 0.00 0.00 0.00 83 1016.5
20260504042632 5 292 0.0 0.0 0.00 0.00 0.00 84 1016.6
20260504042129 5 292 0.0 0.0 0.00 0.00 0.00 84 1016.2
20260504041624 5 292 0.0 0.0 0.00 0.00 0.00 84 1016.1
20260504041121 5 292 0.0 0.0 0.00 0.00 0.00 84 1016.2
20260504040618 5 292 0.0 0.0 0.00 0.00 0.00 83 1015.9
20260504040115 5 292 0.0 0.0 0.00 0.00 0.00 82 1016.2
20260504035612 6 292 0.0 0.0 0.00 0.00 0.00 80 1016.1
20260504035108 6 292 0.0 0.0 0.00 0.00 0.00 80 1015.9
20260504034606 6 292 0.0 0.0 0.00 0.00 0.00 80 1016.1
20260504034102 5 292 0.0 0.0 0.00 0.00 0.00 81 1015.8
20260504033601 6 292 0.0 0.0 0.00 0.00 0.00 81 1015.9
20260504033058 5 292 0.0 0.0 0.00 0.00 0.00 82 1016.1
20260504032554 6 292 0.0 0.0 0.00 0.00 0.00 80 1015.8
20260504032051 6 292 0.0 0.0 0.00 0.00 0.00 78 1015.9
20260504031548 6 292 0.0 0.0 0.00 0.00 0.00 77 1015.7
20260504031045 6 292 0.0 0.0 0.00 0.00 0.00 77 1015.8
20260504030542 6 292 0.0 1.6 0.00 0.00 0.00 77 1015.7
20260504030038 6 292 0.0 0.0 0.00 0.00 0.00 77 1015.8
20260504025536 6 292 0.0 0.0 0.00 0.00 0.00 75 1015.6
20260504025032 6 292 0.0 0.0 0.00 0.00 0.00 74 1015.8
20260504024529 6 292 0.0 0.0 0.00 0.00 0.00 74 1015.6
20260504024026 6 292 0.0 0.0 0.00 0.00 0.00 74 1015.9
20260504023522 7 292 0.0 0.0 0.00 0.00 0.00 74 1015.9
20260504023018 7 292 0.0 0.0 0.00 0.00 0.00 71 1015.7
20260504022514 7 292 0.0 0.0 0.00 0.00 0.00 70 1015.8
20260504022011 7 292 0.0 0.0 0.00 0.00 0.00 69 1015.7
20260504021509 7 292 0.0 0.0 0.00 0.00 0.00 70 1015.7
20260504021005 7 292 0.0 0.0 0.00 0.00 0.00 68 1015.6
20260504020502 7 292 0.0 0.0 0.00 0.00 0.00 69 1015.9
20260504015959 7 292 0.0 0.0 0.00 0.00 0.00 69 1015.7
20260504015455 7 292 0.0 0.0 0.00 0.00 0.00 69 1015.9
20260504014951 7 292 0.0 0.0 0.00 0.00 0.00 69 1015.7
20260504014447 7 292 0.0 0.0 0.00 0.00 0.00 69 1015.7
20260504013944 7 292 0.0 0.0 0.00 0.00 0.00 69 1015.5
20260504013443 7 292 0.0 0.0 0.00 0.00 0.00 66 1015.6
20260504012938 8 292 0.0 0.0 0.00 0.00 0.00 65 1015.6
20260504012437 8 292 0.0 0.0 0.00 0.00 0.00 64 1015.4
20260504011934 8 292 0.0 0.0 0.00 0.00 0.00 63 1015.5
20260504011430 8 292 0.0 0.0 0.00 0.00 0.00 61 1015.5
20260504010926 8 292 0.0 0.0 0.00 0.00 0.00 60 1015.3
20260504010422 9 292 0.0 0.0 0.00 0.00 0.00 59 1015.5
20260504005919 9 292 0.0 0.0 0.00 0.00 0.00 59 1015.2
20260504005415 10 292 0.0 0.0 0.00 0.00 0.00 56 1015.2
20260504004913 10 292 0.0 0.0 0.00 0.00 0.00 54 1015.2
20260504004411 9 292 0.0 0.0 0.00 0.00 0.00 54 1015.1
20260504003907 9 292 0.0 0.0 0.00 0.00 0.00 57 1015.2
20260504003404 10 292 0.0 0.0 0.00 0.00 0.00 53 1015.0
20260504002900 10 292 0.0 0.0 0.00 0.00 0.00 51 1015.0
20260504002357 10 292 0.0 0.0 0.00 0.00 0.00 51 1014.9
20260504001855 11 292 0.0 0.0 0.00 0.00 0.00 49 1014.9
20260504001352 11 292 0.0 0.0 0.00 0.00 0.00 47 1014.8
20260504000849 12 292 0.0 0.0 0.00 0.00 0.00 44 1014.6
20260504000346 13 292 0.0 0.0 0.00 0.00 0.00 42 1014.7
20260503235843 13 292 0.0 1.6 0.00 0.00 0.00 39 1014.5
20260503235341 13 263 0.0 1.6 0.00 0.00 0.00 38 1014.6
20260503234838 14 268 0.0 0.0 0.00 0.00 0.00 38 1014.4
20260503234336 14 252 0.0 4.8 0.00 0.00 0.00 37 1014.6
20260503233833 14 243 0.0 4.8 0.00 0.00 0.00 37 1014.6
20260503233329 15 232 1.6 6.4 0.00 0.00 0.00 37 1014.5
20260503232826 15 196 1.6 9.7 0.00 0.00 0.00 35 1014.3
20260503232323 15 269 6.4 6.4 0.00 0.00 0.00 34 1014.1
20260503231821 15 278 3.2 4.8 0.00 0.00 0.00 34 1014.3
20260503231318 16 286 6.4 9.7 0.00 0.00 0.00 34 1014.4
20260503230813 16 190 3.2 4.8 0.00 0.00 0.00 33 1014.2
20260503230311 16 257 8.0 11.3 0.00 0.00 0.00 32 1014.2
20260503225809 16 285 12.9 16.1 0.00 0.00 0.00 32 1014.3
20260503225304 16 285 4.8 14.5 0.00 0.00 0.00 32 1014.2
20260503224800 16 205 6.4 12.9 0.00 0.00 0.00 32 1014.3
20260503224258 16 263 6.4 14.5 0.00 0.00 0.00 32 1014.2
20260503223755 16 291 4.8 17.7 0.00 0.00 0.00 32 1014.4
20260503223253 16 223 3.2 16.1 0.00 0.00 0.00 32 1014.2
20260503222749 16 283 8.0 16.1 0.00 0.00 0.00 32 1014.3
20260503222247 16 214 9.7 16.1 0.00 0.00 0.00 31 1014.1
20260503221745 16 209 6.4 17.7 0.00 0.00 0.00 31 1014.4
20260503221243 17 253 8.0 11.3 0.00 0.00 0.00 31 1014.3
20260503220739 16 300 6.4 16.1 0.00 0.00 0.00 31 1014.4
20260503220236 16 339 12.9 17.7 0.00 0.00 0.00 31 1014.2
20260503215733 16 206 9.7 12.9 0.00 0.00 0.00 30 1014.3
20260503215230 16 323 1.6 9.7 0.00 0.00 0.00 32 1014.4
20260503214728 16 276 6.4 12.9 0.00 0.00 0.00 31 1014.3
20260503214224 16 263 12.9 20.9 0.00 0.00 0.00 31 1014.5
20260503213723 16 333 9.7 14.5 0.00 0.00 0.00 30 1014.2
20260503213219 16 222 8.0 14.5 0.00 0.00 0.00 31 1014.6
20260503212716 16 266 9.7 16.1 0.00 0.00 0.00 30 1014.3
20260503212214 16 291 3.2 17.7 0.00 0.00 0.00 31 1014.2
20260503211712 16 275 8.0 16.1 0.00 0.00 0.00 31 1014.3
20260503211207 16 287 4.8 11.3 0.00 0.00 0.00 32 1014.3
20260503210703 16 291 6.4 14.5 0.00 0.00 0.00 33 1014.3
20260503210201 16 232 9.7 17.7 0.00 0.00 0.00 32 1014.4
20260503205655 16 250 12.9 20.9 0.00 0.00 0.00 31 1014.3
20260503205152 16 259 8.0 17.7 0.00 0.00 0.00 33 1014.3
20260503204649 16 300 4.8 20.9 0.00 0.00 0.00 33 1014.2
20260503204147 16 308 9.7 16.1 0.00 0.00 0.00 32 1014.4
20260503203643 16 300 4.8 9.7 0.00 0.00 0.00 35 1014.5
20260503203141 16 217 4.8 16.1 0.00 0.00 0.00 33 1014.4
20260503202638 16 140 8.0 14.5 0.00 0.00 0.00 32 1014.4
20260503202136 16 240 16.1 22.5 0.00 0.00 0.00 32 1014.6
20260503201634 16 303 11.3 16.1 0.00 0.00 0.00 33 1014.7
20260503201131 15 273 12.9 22.5 0.00 0.00 0.00 32 1014.8
20260503200627 15 337 3.2 14.5 0.00 0.00 0.00 36 1014.8
20260503200124 15 223 6.4 16.1 0.00 0.00 0.00 34 1014.9
20260503195621 16 297 12.9 17.7 0.00 0.00 0.00 33 1014.8
20260503195118 16 273 9.7 29.0 0.00 0.00 0.00 34 1014.8
20260503194615 15 241 6.4 20.9 0.00 0.00 0.00 34 1014.6
20260503194109 15 60 8.0 24.1 0.00 0.00 0.00 33 1014.8
20260503193607 15 353 8.0 17.7 0.00 0.00 0.00 35 1014.9
20260503193102 15 30 6.4 12.9 0.00 0.00 0.00 34 1014.9
20260503192558 16 298 11.3 16.1 0.00 0.00 0.00 33 1015.1
20260503192054 15 21 9.7 16.1 0.00 0.00 0.00 34 1015.1
20260503191551 15 291 6.4 24.1 0.00 0.00 0.00 33 1015.3
20260503191048 15 291 6.4 16.1 0.00 0.00 0.00 34 1015.2
20260503190545 15 311 6.4 17.7 0.00 0.00 0.00 34 1015.1
20260503190042 15 312 14.5 25.7 0.00 0.00 0.00 34 1015.1
20260503185538 15 266 11.3 16.1 0.00 0.00 0.00 34 1015.3
20260503185038 15 205 14.5 22.5 0.00 0.00 0.00 35 1015.2
20260503184534 14 312 9.7 20.9 0.00 0.00 0.00 35 1015.3
20260503184031 14 223 9.7 20.9 0.00 0.00 0.00 36 1015.2
20260503183528 15 307 9.7 14.5 0.00 0.00 0.00 35 1015.4
20260503183025 15 276 4.8 20.9 0.00 0.00 0.00 37 1015.4
20260503182523 15 329 3.2 9.7 0.00 0.00 0.00 36 1015.6
20260503182021 14 292 8.0 17.7 0.00 0.00 0.00 36 1015.5
20260503181518 14 0 8.0 16.1 0.00 0.00 0.00 37 1015.5
20260503181014 14 311 1.6 11.3 0.00 0.00 0.00 39 1015.6
20260503180511 13 320 8.0 20.9 0.00 0.00 0.00 35 1015.7
20260503180008 14 292 14.5 22.5 0.00 0.00 0.00 35 1015.8
20260503175506 13 269 9.7 17.7 0.00 0.00 0.00 35 1015.5
20260503175002 13 314 11.3 17.7 0.00 0.00 0.00 36 1015.7
20260503174500 13 282 11.3 20.9 0.00 0.00 0.00 35 1015.7
20260503173955 13 324 19.3 27.4 0.00 0.00 0.00 35 1015.8
20260503173451 13 275 11.3 22.5 0.00 0.00 0.00 36 1015.9
20260503172948 12 270 8.0 17.7 0.00 0.00 0.00 36 1016.0
20260503172446 13 225 6.4 14.5 0.00 0.00 0.00 37 1015.5
20260503171942 13 262 11.3 16.1 0.00 0.00 0.00 35 1015.8
20260503171439 13 242 14.5 20.9 0.00 0.00 0.00 37 1016.2
20260503170937 13 321 6.4 17.7 0.00 0.00 0.00 38 1015.9
20260503170432 13 288 8.0 22.5 0.00 0.00 0.00 38 1015.8
20260503150825 10 220 9.7 14.5 0.00 0.00 0.00 48 1016.5
20260503150321 11 308 14.5 17.7 0.00 0.00 0.00 46 1016.5
20260503140245 10 240 6.4 22.5 0.00 0.00 0.00 50 1016.4
20260503131215 8 300 6.4 17.7 0.00 0.00 0.00 57 1016.2
20260503130713 9 243 6.4 17.7 0.00 0.00 0.00 57 1016.0
20260503130210 10 314 8.0 12.9 0.00 0.00 0.00 57 1015.9
20260503120135 8 288 6.4 11.3 0.00 0.00 0.00 65 1015.8